Location: Chateh
(58.6667°N, 118.6000°W)
Time: 07:01:35
(UTC+00:00)

NOAA 17 DEB - Visible Passes

Search period start: 21 May 2024 00:00
Search period end: 31 May 2024 00:00
Orbit: 750 x 794 km, 98.7° (Epoch: 16 May)

Date Brightness Start Highest point End Pass type
(mag) Time Alt. Az. Time Alt. Az. Time Alt. Az.
21 May ? 08:58:36 10° ENE 09:00:03 11° ENE 09:01:30 10° E visible
22 May ? 10:00:35 10° NNE 10:05:09 29° E 10:09:41 10° SSE visible
23 May ? 09:26:10 10° NE 09:29:39 18° E 09:33:06 10° SE visible
25 May ? 09:54:33 10° NNE 09:58:58 27° E 10:03:21 10° SSE visible
26 May ? 09:20:10 10° NE 09:23:20 16° E 09:26:29 10° ESE visible
28 May ? 09:48:12 10° NE 09:52:26 24° E 09:56:39 10° SE visible
29 May ? 09:13:53 10° NE 09:16:39 14° E 09:19:25 10° ESE visible
